CAPE
2 1 3 5 4 3 2 1 0 0 0 0 0 0 0 0 0 0 0 0 0 0 0 0 0 0 0 0 0 0 0 0 0 0 0 0 0 0 0 0 0 0 0 0 0 0 0 0 0 0 0 0 0 0 0 0 0 0 0 0 0 38 0 0 0 11 2 0 0 0 0 0 0 0 4 19 21 15 4 0 4 0 4 0 1 345 1002
2 1 3 4 4 2 2 1 0 0 0 0 0 0 0 0 0 0 0 0 0 0 0 0 0 0 2 0 0 0 0 0 0 0 0 0 0 0 0 0 0 0 0 0 0 0 0 0 0 0 0 0 0 0 0 0 0 0 0 0 0 0 14 21 5 3 19 9 0 0 0 0 0 0 0 2 10 3 0 0 96 0 415 306 525 608 695
1 2 3 4 4 2 2 1 0 0 0 0 0 0 0 0 0 0 0 0 0 0 0 0 0 0 0 0 0 0 0 0 0 0 0 0 0 0 0 0 0 0 0 0 0 0 0 0 0 0 0 0 0 0 0 0 0 0 4 20 0 0 0 0 0 11 17 17 10 2 0 0 0 19 17 64 115 127 123 25 76 144 550 737 832 895 866
1 4 4 4 4 3 2 1 0 0 0 0 0 0 0 0 0 0 0 0 0 0 0 0 0 0 0 0 0 0 0 0 0 0 0 0 0 0 0 0 0 0 0 0 3 0 0 0 0 5 0 0 0 0 0 0 0 457 510 149 0 0 0 0 58 0 5 18 13 1 33 4 0 45 30 11 70 57 64 54 136 240 724 946 976 949 900
3 5 6 4 4 3 2 1 0 0 0 0 0 0 0 0 0 0 2 0 0 0 0 0 0 0 0 0 0 0 0 0 0 0 0 0 0 0 0 0 0 0 0 0 0 0 0 2 0 1 4 0 0 0 0 0 61 252 353 182 0 0 0 0 0 6 0 196 78 33 10 2 5 6 2 2 10 10 12 26 95 254 218 570 865 763 660
6 6 6 4 4 4 3 2 0 0 0 0 0 0 0 0 0 0 2 1 0 0 0 0 0 0 0 0 0 0 0 0 0 0 0 0 0 0 0 0 0 0 0 0 0 0 0 35 36 0 3 0 0 3 1 0 14 36 12 1 0 0 0 0 0 0 0 0 24 4 10 0 2 0 0 4 15 9 7 58 283 315 236 196 334 331 265
6 5 4 5 4 4 4 2 0 0 0 0 0 0 0 0 0 0 0 5 10 7 14 17 0 0 0 2 0 0 0 0 0 0 0 0 0 0 0 0 0 0 0 0 0 77 1 201 12 1 0 9 0 64 34 4 0 0 0 0 23 0 0 0 0 0 0 0 0 0 0 6 2 7 0 0 4 12 129 377 391 310 268 225 418 714 559
4 4 5 6 4 4 4 2 0 0 0 0 0 0 0 0 0 0 27 46 20 3 1 0 0 0 10 4 0 0 0 0 0 0 0 0 2 0 0 0 0 0 0 0 0 121 7 2 39 33 3 0 0 56 0 4 0 0 1 8 19 0 1 12 0 0 0 0 0 0 0 0 1 1 0 3 8 270 307 322 268 356 289 368 379 356 368
2 4 5 6 4 5 4 3 1 0 0 0 0 0 24 53 2 5 70 133 67 62 16 2 0 0 0 0 0 0 0 0 0 0 0 0 0 0 0 0 0 0 0 0 0 0 20 0 0 43 0 0 47 0 29 0 0 0 0 3 58 7 36 0 1 0 0 0 0 0 0 0 2 10 37 1 4 274 334 311 254 298 298 279 250 213 444
0 2 4 6 4 5 5 5 2 0 0 0 0 0 0 50 12 20 59 80 113 77 18 20 0 0 0 0 0 0 0 0 0 0 0 0 0 0 0 0 0 0 0 0 0 0 0 0 0 0 0 0 0 0 0 0 0 0 0 0 0 8 21 0 12 0 0 0 0 0 3 8 4 92 52 10 141 327 331 297 338 337 260 250 230 391 410
0 2 5 6 5 4 6 5 2 0 0 0 0 0 0 0 10 56 137 199 126 54 44 32 0 2 0 0 0 0 0 1 0 0 17 0 0 0 0 0 0 0 8 0 0 0 0 0 0 0 0 0 0 0 0 0 0 0 0 0 0 26 88 12 18 0 1 1 3 2 4 27 152 116 15 154 58 44 401 382 395 340 490 449 517 502 572
0 0 4 5 5 5 4 3 2 0 0 0 0 0 0 0 0 91 87 178 215 108 21 3 2 10 4 8 0 0 0 1 0 0 0 1 0 0 0 0 0 0 11 0 0 0 0 0 0 0 0 0 0 0 0 0 0 100 0 0 61 2 14 26 80 8 18 9 22 0 1 40 168 148 96 80 178 478 434 351 260 254 239 282 386 529 565
1 1 4 3 6 5 3 4 2 0 0 0 0 0 0 0 0 20 17 130 293 255 104 48 48 38 26 15 31 0 0 0 0 0 0 0 0 0 0 0 0 0 0 0 0 0 0 0 0 0 0 0 0 0 0 0 0 0 0 0 0 0 1 6 9 28 31 38 94 6 47 157 190 144 27 24 8 92 355 64 48 132 224 238 382 462 569
3 2 6 5 6 8 7 5 4 2 0 0 0 0 0 0 0 1 13 79 198 298 343 233 158 90 16 1 0 18 3 0 0 0 0 0 0 0 0 0 0 0 0 0 0 0 0 0 0 1 0 0 0 10 42 0 0 0 0 0 0 0 0 11 27 35 37 32 21 227 376 76 283 486 319 74 11 4 4 4 8 22 25 319 509 576 426
3 2 4 7 8 10 10 5 5 4 0 0 0 0 0 0 11 38 0 26 146 229 214 257 223 116 54 12 0 2 4 12 6 0 0 0 0 0 0 0 0 0 0 0 0 0 0 0 1 25 12 1 23 74 19 28 11 0 0 0 0 75 1 113 31 91 8 44 33 26 33 147 331 266 95 155 3 4 130 255 24 32 119 445 472 492 428
2 1 4 8 9 7 8 8 7 3 0 0 0 0 0 0 0 114 13 0 5 0 6 97 153 84 56 12 8 0 21 1 24 8 0 0 0 0 0 0 0 0 0 0 0 0 23 43 60 39 13 107 69 82 54 45 11 0 0 0 0 0 0 90 0 9 18 100 68 45 13 234 184 170 212 84 19 3 2 70 117 14 319 419 401 400 440
4 5 5 6 13 10 4 6 6 3 0 0 0 0 0 0 0 3 8 6 64 76 147 200 128 128 82 3 19 17 5 6 38 12 2 7 0 0 0 0 0 0 0 0 0 0 0 4 26 20 160 171 141 35 29 31 2 124 202 22 49 53 102 48 0 0 0 119 34 219 364 316 388 546 295 52 53 8 0 0 154 44 549 586 620 659 584
5 4 2 3 9 6 5 7 6 3 0 0 0 0 0 0 0 0 6 1 10 92 125 38 28 54 58 77 16 18 1 48 13 8 0 8 2 0 0 0 0 0 0 0 0 0 0 0 1 4 142 158 187 0 0 93 209 341 68 30 33 36 246 105 44 52 41 93 288 589 531 369 186 178 75 165 138 48 2 12 20 177 604 666 665 723 702
5 4 4 4 9 10 8 6 4 6 2 0 0 0 0 0 0 4 11 0 0 11 22 22 36 98 28 7 6 0 2 28 98 8 5 0 65 0 0 3 0 5 0 0 0 0 0 57 415 230 134 238 74 44 14 0 103 253 211 289 296 175 228 135 161 76 96 127 453 380 80 62 62 270 183 211 351 333 72 26 26 400 698 729 785 806 725
7 5 6 4 3 4 6 6 3 5 6 0 0 0 0 0 0 0 0 0 0 1 6 0 0 0 0 0 8 30 27 0 0 6 32 48 170 1 14 0 1 0 46 0 0 0 20 57 34 194 62 79 218 350 49 26 25 24 71 64 5 74 29 44 84 86 58 120 134 207 330 157 330 425 310 216 324 143 61 322 412 584 723 700 694 846 754
6 6 4 3 4 4 4 3 1 3 6 0 0 0 0 0 0 0 37 49 0 0 0 0 0 0 4 1 0 0 25 28 68 2 14 2 17 25 8 1 110 0 104 203 99 66 37 69 93 88 49 32 404 287 85 138 214 0 165 78 230 340 469 73 48 22 116 196 237 238 302 324 308 175 151 208 218 276 421 222 448 651 800 832 694 644 764
9 8 7 5 6 7 6 2 0 0 7 2 0 0 0 0 0 0 0 0 6 0 0 0 0 0 5 0 0 1 22 1 3 11 83 76 294 83 123 104 128 37 122 101 55 67 207 242 196 234 292 345 253 302 231 34 199 97 251 104 20 285 498 157 186 226 246 202 178 239 406 140 210 402 328 254 268 263 282 272 284 536 766 852 796 764 801
6 6 6 4 4 5 7 6 2 0 4 6 2 1 0 0 0 0 0 0 0 1 8 0 0 14 54 122 95 47 21 6 21 43 58 104 233 166 96 26 85 48 125 209 414 248 376 195 254 177 281 523 265 199 130 139 128 250 250 301 505 457 630 205 207 151 179 244 402 314 198 160 106 198 287 200 148 216 249 265 327 469 674 768 841 826 886
4 7 8 8 6 6 7 8 6 3 1 4 2 3 0 0 0 0 0 1 19 30 66 59 0 0 34 68 49 31 11 40 35 5 11 15 8 207 83 93 8 47 492 704 216 258 323 294 231 440 153 907 414 157 140 90 129 84 227 243 296 333 282 302 300 377 114 56 264 138 292 377 420 366 334 255 190 212 350 312 380 545 667 855 1003 990 1104
4 9 11 12 10 7 7 6 6 6 4 2 2 2 1 0 0 0 0 15 47 20 40 66 26 29 0 2 16 1 1 19 10 5 5 24 0 0 42 263 119 346 331 160 138 132 233 151 262 119 88 199 15 70 531 192 242 262 141 83 440 311 233 129 506 597 336 641 642 277 332 523 564 488 398 286 192 159 283 488 526 663 784 757 760 1009 916
2 6 10 14 13 10 7 7 6 8 6 5 2 2 1 0 0 0 0 0 33 108 278 236 91 96 52 0 0 0 0 16 23 0 0 0 0 2 102 162 230 24 178 110 216 88 266 150 0 0 0 75 80 172 210 221 460 575 186 137 189 188 40 116 214 485 572 575 548 590 515 456 362 275 166 273 388 288 222 306 237 262 544 534 532 727 930
3 6 9 12 13 12 8 8 9 7 5 3 3 2 2 0 0 0 0 18 39 54 258 188 64 70 86 45 73 21 0 0 0 0 0 0 0 0 0 22 161 108 0 33 0 3 203 47 19 109 80 430 90 233 43 215 175 503 80 252 271 90 301 122 232 321 332 346 498 484 325 420 417 403 453 294 272 556 296 344 215 316 489 611 757 706 792
5 8 7 10 9 11 10 7 8 8 1 2 2 1 1 0 0 0 0 0 22 142 197 166 76 50 0 1 120 10 0 2 0 0 0 0 0 0 0 20 21 1 180 0 289 0 15 0 2 195 81 276 54 290 97 212 0 31 260 424 511 597 143 364 382 182 354 717 645 430 526 676 600 340 179 418 374 396 500 314 379 241 260 356 737 745 634
11 12 10 10 10 8 6 6 5 5 2 0 0 0 0 0 0 0 0 0 26 110 26 11 18 13 24 135 18 8 3 0 0 0 0 0 1 0 18 117 44 39 1 0 24 306 198 268 311 360 708 326 159 107 154 87 276 542 247 745 586 662 728 578 493 470 484 598 646 591 507 351 524 454 371 197 344 570 413 434 372 256 274 273 289 366 575
13 14 13 10 9 5 3 2 4 3 2 0 0 0 0 2 0 0 0 5 19 82 84 44 22 84 60 49 40 20 0 0 0 0 2 2 2 0 67 204 214 158 294 492 364 156 290 393 542 695 541 418 197 207 23 55 373 875 698 560 494 431 750 899 569 446 484 646 592 708 644 618 565 575 398 98 109 487 484 256 128 67 0 70 310 147 214
13 12 10 6 2 3 1 4 2 3 1 1 1 0 0 8 11 0 0 0 2 132 81 19 25 32 1 12 9 4 0 0 0 0 1 2 3 9 45 68 105 64 225 442 223 413 187 228 441 548 344 353 177 192 85 61 302 384 692 662 667 672 635 640 760 718 648 641 586 211 141 556 546 440 330 300 228 404 335 285 128 22 0 87 307 161 220
10 8 6 4 2 2 3 6 4 2 1 1 0 0 54 115 51 0 0 0 19 112 98 14 23 14 1 10 9 0 0 0 0 0 1 1 26 0 321 10 286 16 342 537 749 682 189 788 664 812 619 58 338 95 217 28 65 631 448 847 699 693 441 444 611 685 985 791 346 199 17 130 244 149 270 214 98 127 456 428 189 146 64 127 223 75 136
6 4 3 2 2 0 2 5 7 2 1 0 0 0 0 70 83 41 0 0 10 117 137 51 0 0 0 37 4 0 0 0 7 0 129 0 430 11 292 68 573 500 319 177 350 331 238 252 811 764 952 686 531 273 128 107 720 529 650 587 910 520 842 516 484 405 307 79 72 290 538 313 175 290 346 303 183 156 26 46 364 300 244 170 174 189 161
1 1 1 1 2 3 1 6 8 3 0 0 0 0 0 29 42 49 35 26 51 294 149 45 11 0 0 0 9 173 0 5 150 0 83 8 691 1 386 95 459 198 283 58 550 105 334 212 530 628 514 996 304 195 180 300 400 552 660 827 651 622 716 485 513 460 536 482 254 476 500 420 201 159 250 208 262 23 0 0 0 0 2 0 50 221 203
0 1 0 0 0 1 0 2 2 2 1 0 0 0 0 0 0 0 0 34 124 14 24 46 24 38 17 2 0 283 43 0 248 0 8 161 128 131 433 242 285 33 395 6 212 174 385 368 618 375 430 407 252 150 139 383 290 207 345 735 529 466 422 254 358 613 446 258 108 182 137 152 374 185 162 24 0 17 0 0 0 0 0 0 0 0 3
1 1 0 1 1 0 0 0 1 1 2 0 6 82 0 0 0 0 0 59 222 396 188 0 0 0 2 9 1 441 185 70 120 11 178 295 122 91 182 353 205 149 287 43 285 243 169 705 108 202 630 100 219 155 415 774 692 540 279 562 485 474 410 472 588 602 498 354 327 150 302 133 66 260 134 65 35 9 0 0 0 0 0 0 0 0 0
1 1 1 0 0 0 2 0 0 0 37 40 8 0 7 76 156 73 64 121 324 247 114 104 168 31 0 0 380 203 173 37 44 70 157 92 356 57 188 250 162 599 167 406 256 352 638 198 241 225 254 156 569 492 1168 600 431 684 532 594 544 573 589 521 577 361 405 462 453 312 218 199 254 220 165 181 10 0 0 0 0 0 4 8 109 13 5
0 0 1 1 2 2 2 0 13 14 0 0 5 26 3 351 144 68 239 142 314 284 143 0 0 8 108 88 102 503 4 97 1 278 560 290 417 589 382 151 1039 303 312 262 294 818 388 218 346 201 294 280 1279 1149 1088 1083 889 844 859 851 638 725 556 473 404 328 326 230 254 198 160 88 172 125 4 79 24 52 14 32 33 1 0 0 0 0 0
0 0 1 1 2 1 98 246 96 0 0 1 26 15 18 0 0 5 1 2 79 144 98 0 0 0 3 32 451 301 41 412 185 577 376 779 573 342 515 242 384 209 188 160 486 52 248 354 374 268 214 386 584 632 443 902 576 650 938 920 716 676 459 480 304 275 264 210 280 140 100 35 27 96 0 10 2 1 0 0 1 22 64 93 75 15 2
2 1 5 8 0 28 127 97 0 102 3 50 15 2 8 0 0 2 2 0 0 0 0 0 0 0 0 20 89 463 119 105 303 684 486 651 333 149 262 222 493 128 126 117 239 38 175 310 444 312 340 294 464 749 492 737 654 598 523 628 784 586 321 594 329 314 123 237 16 123 194 116 48 20 4 0 0 5 3 59 24 22 8 21 53 37 11
1 0 1 13 53 46 122 85 15 170 16 0 0 0 7 24 0 0 0 0 0 0 0 0 0 0 0 0 0 92 318 346 985 1107 540 688 1050 258 340 297 608 402 263 60 368 95 213 201 287 240 104 999 1299 749 624 599 658 598 687 686 585 290 198 369 279 105 70 161 72 89 141 173 77 29 13 22 71 13 50 31 16 23 21 14 28 75 60
20 1 2 1 2 10 116 76 22 10 2 9 3 0 0 5 2 0 0 0 0 0 0 0 0 0 0 0 0 2 266 649 950 867 290 203 361 247 293 450 397 196 55 285 456 411 295 182 105 46 411 987 996 719 553 617 584 555 637 545 475 301 182 166 177 100 194 493 360 305 199 166 362 132 141 48 5 10 12 2 2 0 0 16 2 0 0
1 2 2 0 65 85 132 2 5 7 6 1 0 2 0 0 0 2 9 0 0 0 26 0 0 0 0 0 0 17 856 384 634 715 471 312 37 309 484 384 346 109 281 495 228 281 112 72 2 283 1181 970 707 558 538 479 391 382 452 484 360 373 280 251 367 250 245 360 380 359 243 206 137 217 35 1 0 2 14 21 6 2 0 0 0 0 0
0 3 0 22 12 72 12 2 2 3 3 0 0 0 0 0 0 0 2 7 0 0 1 0 0 0 0 0 0 495 332 113 118 380 336 467 453 461 231 139 133 290 292 197 136 38 86 48 12 687 957 726 438 438 465 340 320 275 401 571 411 442 294 387 294 222 296 238 236 158 19 1 0 0 0 0 0 0 0 0 0 0 0 0 0 0 2
2 2 11 6 4 19 0 1 3 1 2 0 0 0 0 0 0 2 2 47 16 42 27 8 20 0 18 2 0 400 266 508 170 132 48 293 324 293 122 62 184 282 124 63 85 104 27 75 764 909 742 404 310 372 363 266 256 240 511 612 486 414 398 290 292 266 164 159 17 5 24 27 2 0 0 0 0 0 0 0 0 0 0 0 0 0 0
1 6 12 7 6 2 0 3 0 0 1 4 2 0 0 1 4 59 26 0 25 36 21 94 116 45 44 29 1 220 127 416 121 106 379 187 125 87 130 252 205 34 66 60 40 17 69 118 788 710 546 399 316 437 342 408 414 639 656 646 568 547 381 450 308 242 105 127 44 1 0 0 0 0 0 0 0 0 0 0 0 0 0 0 0 0 0
2 32 10 2 2 1 0 0 0 0 1 1 1 2 2 22 45 29 543 322 186 233 573 136 106 109 250 8 19 249 234 202 187 227 129 258 111 252 265 200 77 76 72 40 114 125 122 449 671 680 502 545 482 561 449 607 678 762 726 707 550 481 475 320 110 79 3 0 0 0 0 0 0 0 0 0 0 0 0 0 0 0 0 0 0 0 2
4 15 13 4 0 0 0 5 2 0 0 0 20 33 54 46 20 11 48 703 540 1096 622 650 615 516 487 493 260 95 183 175 209 272 96 152 357 179 72 93 117 139 121 107 120 126 177 799 712 658 599 540 641 518 587 648 763 792 808 708 538 387 308 156 34 0 0 0 0 0 0 0 0 0 0 0 0 0 0 0 1 1 1 1 2 7 8
10 4 14 9 5 10 8 0 0 0 0 9 9 18 12 30 26 25 517 789 1263 1022 707 563 634 771 579 401 92 255 254 296 62 113 200 184 199 37 126 57 177 152 211 165 142 306 685 792 752 628 634 582 708 635 649 654 607 599 582 538 362 287 131 1 0 0 0 0 0 0 0 0 0 0 0 0 0 0 0 0 0 0 0 1 4 8 7
5 6 4 15 29 9 8 2 0 5 11 7 17 63 56 28 38 32 659 982 730 442 435 455 397 270 417 344 99 230 69 172 246 119 237 200 198 216 144 129 133 183 376 410 624 884 894 945 815 821 639 717 777 742 654 579 692 500 373 321 193 51 0 0 0 0 0 0 0 0 0 0 0 0 0 0 0 0 0 0 0 1 11 14 12 11 15
5 4 10 9 15 86 81 58 0 20 77 70 78 321 112 130 216 644 798 1049 713 606 477 352 306 98 27 13 34 2 108 397 209 258 195 258 200 230 220 228 81 615 697 753 760 754 849 711 796 630 670 646 713 586 549 506 449 288 243 216 72 5 0 0 0 0 0 0 0 0 0 0 0 0 0 0 0 0 0 14 23 6 1 4 10 5 7
4 3 8 8 17 21 103 124 21 12 48 42 10 7 35 243 573 876 879 762 651 430 336 256 213 64 0 14 218 263 611 165 241 166 153 200 189 223 257 280 600 443 733 34 444 723 487 740 743 755 779 769 775 718 594 374 299 166 102 14 0 0 0 0 0 0 0 0 0 0 0 0 0 0 0 0 0 6 15 21 9 8 5 6 10 16 13
Wind_Speed
nan nan nan nan nan nan nan nan nan nan nan nan nan nan nan nan nan nan nan nan nan nan nan nan nan nan nan nan nan nan nan nan nan nan nan nan nan nan nan nan nan nan nan nan nan nan nan nan nan nan nan nan nan nan nan nan nan nan nan nan nan nan nan nan nan nan nan nan nan nan nan nan nan nan nan nan nan nan nan nan nan nan nan nan nan 25 22
nan nan nan nan nan nan nan nan nan nan nan nan nan nan nan nan nan nan nan nan nan nan nan nan nan nan nan nan nan nan nan nan nan nan nan nan nan nan nan nan nan nan nan nan nan nan nan nan nan nan nan nan nan nan nan nan nan nan nan nan nan nan nan nan nan nan nan nan nan nan nan nan nan nan nan nan nan nan nan nan nan nan 26 24 25 21 21
nan nan nan nan nan nan nan nan nan nan nan nan nan nan nan nan nan nan nan nan nan nan nan nan nan nan nan nan nan nan nan nan nan nan nan nan nan nan nan nan nan nan nan nan nan nan nan nan nan nan nan nan nan nan nan nan nan nan nan nan nan nan nan nan nan nan nan nan nan nan nan nan nan nan nan nan 36 38 30 nan nan 25 25 34 29 24 21
nan nan nan nan nan nan nan nan nan nan nan nan nan nan nan nan nan nan nan nan nan nan nan nan nan nan nan nan nan nan nan nan nan nan nan nan nan nan nan nan nan nan nan nan nan nan nan nan nan nan nan nan nan nan nan nan nan 13 17 14 nan nan nan nan nan nan nan nan nan nan nan nan nan nan nan nan nan nan nan nan 29 27 28 36 34 32 30
nan nan nan nan nan nan nan nan nan nan nan nan nan nan nan nan nan nan nan nan nan nan nan nan nan nan nan nan nan nan nan nan nan nan nan nan nan nan nan nan nan nan nan nan nan nan nan nan nan nan nan nan nan nan nan nan nan 12 13 12 nan nan nan nan nan nan nan 18 nan nan nan nan nan nan nan nan nan nan nan nan nan 33 33 37 33 35 36
nan nan nan nan nan nan nan nan nan nan nan nan nan nan nan nan nan nan nan nan nan nan nan nan nan nan nan nan nan nan nan nan nan nan nan nan nan nan nan nan nan nan nan nan nan nan nan nan nan nan nan nan nan nan nan nan nan nan nan nan nan nan nan nan nan nan nan nan nan nan nan nan nan nan nan nan nan nan nan nan 45 45 42 35 36 38 43
nan nan nan nan nan nan nan nan nan nan nan nan nan nan nan nan nan nan nan nan nan nan nan nan nan nan nan nan nan nan nan nan nan nan nan nan nan nan nan nan nan nan nan nan nan nan nan 11 nan nan nan nan nan nan nan nan nan nan nan nan nan nan nan nan nan nan nan nan nan nan nan nan nan nan nan nan nan nan 45 45 48 47 43 41 38 42 49
nan nan nan nan nan nan nan nan nan nan nan nan nan nan nan nan nan nan nan nan nan nan nan nan nan nan nan nan nan nan nan nan nan nan nan nan nan nan nan nan nan nan nan nan nan 13 nan nan nan nan nan nan nan nan nan nan nan nan nan nan nan nan nan nan nan nan nan nan nan nan nan nan nan nan nan nan nan 51 50 52 54 49 52 53 49 44 39
nan nan nan nan nan nan nan nan nan nan nan nan nan nan nan nan nan nan nan 13 nan nan nan nan nan nan nan nan nan nan nan nan nan nan nan nan nan nan nan nan nan nan nan nan nan nan nan nan nan nan nan nan nan nan nan nan nan nan nan nan nan nan nan nan nan nan nan nan nan nan nan nan nan nan nan nan nan 45 47 47 49 51 49 48 49 48 39
nan nan nan nan nan nan nan nan nan nan nan nan nan nan nan nan nan nan nan nan 16 nan nan nan nan nan nan nan nan nan nan nan nan nan nan nan nan nan nan nan nan nan nan nan nan nan nan nan nan nan nan nan nan nan nan nan nan nan nan nan nan nan nan nan nan nan nan nan nan nan nan nan nan nan nan nan 41 42 46 46 50 50 47 51 47 41 39
nan nan nan nan nan nan nan nan nan nan nan nan nan nan nan nan nan nan 20 16 14 nan nan nan nan nan nan nan nan nan nan nan nan nan nan nan nan nan nan nan nan nan nan nan nan nan nan nan nan nan nan nan nan nan nan nan nan nan nan nan nan nan nan nan nan nan nan nan nan nan nan nan 26 23 nan 33 nan nan 48 47 48 50 51 45 42 41 42
nan nan nan nan nan nan nan nan nan nan nan nan nan nan nan nan nan nan nan 17 15 16 nan nan nan nan nan nan nan nan nan nan nan nan nan nan nan nan nan nan nan nan nan nan nan nan nan nan nan nan nan nan nan nan nan nan nan nan nan nan nan nan nan nan nan nan nan nan nan nan nan nan 25 31 nan nan 36 42 42 43 45 44 49 52 52 50 50
nan nan nan nan nan nan nan nan nan nan nan nan nan nan nan nan nan nan nan 17 15 19 21 nan nan nan nan nan nan nan nan nan nan nan nan nan nan nan nan nan nan nan nan nan nan nan nan nan nan nan nan nan nan nan nan nan nan nan nan nan nan nan nan nan nan nan nan nan nan nan nan 21 28 29 nan nan nan nan 35 nan nan 40 43 49 52 55 53
nan nan nan nan nan nan nan nan nan nan nan nan nan nan nan nan nan nan nan nan 18 21 23 20 18 nan nan nan nan nan nan nan nan nan nan nan nan nan nan nan nan nan nan nan nan nan nan nan nan nan nan nan nan nan nan nan nan nan nan nan nan nan nan nan nan nan nan nan nan 15 19 nan 30 31 33 nan nan nan nan nan nan nan nan 42 47 52 52
nan nan nan nan nan nan nan nan nan nan nan nan nan nan nan nan nan nan nan nan 18 20 19 18 21 26 nan nan nan nan nan nan nan nan nan nan nan nan nan nan nan nan nan nan nan nan nan nan nan nan nan nan nan nan nan nan nan nan nan nan nan nan nan 7 nan nan nan nan nan nan nan 19 18 20 nan 26 nan nan 29 30 nan nan 38 38 38 41 44
nan nan nan nan nan nan nan nan nan nan nan nan nan nan nan nan nan 22 nan nan nan nan nan nan 29 nan nan nan nan nan nan nan nan nan nan nan nan nan nan nan nan nan nan nan nan nan nan nan nan nan nan 15 nan nan nan nan nan nan nan nan nan nan nan nan nan nan nan 8 nan nan nan 15 15 14 18 nan nan nan nan nan 31 nan 34 34 33 35 35
nan nan nan nan nan nan nan nan nan nan nan nan nan nan nan nan nan nan nan nan nan nan 19 24 26 22 nan nan nan nan nan nan nan nan nan nan nan nan nan nan nan nan nan nan nan nan nan nan nan nan 19 15 12 nan nan nan nan 7 10 nan nan nan 9 nan nan nan nan 8 nan 16 18 18 16 14 14 nan nan nan nan nan 30 nan 33 33 33 35 33
nan nan nan nan nan nan nan nan nan nan nan nan nan nan nan nan nan nan nan nan nan nan 21 nan nan nan nan nan nan nan nan nan nan nan nan nan nan nan nan nan nan nan nan nan nan nan nan nan nan nan 19 15 14 nan nan nan 9 8 nan nan nan nan 9 11 nan nan nan nan 16 16 17 17 17 15 nan 16 16 nan nan nan nan 28 31 33 32 32 34
nan nan nan nan nan nan nan nan nan nan nan nan nan nan nan nan nan nan nan nan nan nan nan nan nan nan nan nan nan nan nan nan nan nan nan nan nan nan nan nan nan nan nan nan nan nan nan nan 21 19 17 14 nan nan nan nan 11 10 8 10 9 10 11 10 11 nan nan 14 18 13 nan nan nan 13 20 15 18 23 nan nan nan 27 29 30 30 31 32
nan nan nan nan nan nan nan nan nan nan nan nan nan nan nan nan nan nan nan nan nan nan nan nan nan nan nan nan nan nan nan nan nan nan nan nan 17 nan nan nan nan nan nan nan nan nan nan nan nan 15 nan nan 13 11 nan nan nan nan nan nan nan nan nan nan nan nan nan 15 16 14 10 9 14 15 19 21 21 18 nan 24 28 29 30 29 29 29 32
nan nan nan nan nan nan nan nan nan nan nan nan nan nan nan nan nan nan nan nan nan nan nan nan nan nan nan nan nan nan nan nan nan nan nan nan nan nan nan nan 15 nan 17 17 nan nan nan nan nan nan nan nan 11 13 nan 10 12 nan 15 nan 13 9 11 nan nan nan 15 16 15 14 12 12 14 18 17 14 19 17 21 24 25 25 27 28 29 29 30
nan nan nan nan nan nan nan nan nan nan nan nan nan nan nan nan nan nan nan nan nan nan nan nan nan nan nan nan nan nan nan nan nan nan nan nan 15 nan 19 17 14 nan 17 15 nan nan 14 14 14 16 15 12 12 14 10 nan 11 nan 11 14 nan 7 13 12 14 14 16 16 16 15 16 17 17 17 17 18 19 21 22 24 24 24 25 25 27 27 29
nan nan nan nan nan nan nan nan nan nan nan nan nan nan nan nan nan nan nan nan nan nan nan nan nan nan nan 24 nan nan nan nan nan nan nan 24 19 17 nan nan nan nan 16 13 12 13 13 13 14 13 14 13 13 13 14 12 10 10 11 10 11 10 13 12 15 15 17 19 20 19 19 19 19 20 21 21 21 22 23 23 23 23 23 24 24 26 27
nan nan nan nan nan nan nan nan nan nan nan nan nan nan nan nan nan nan nan nan nan nan nan nan nan nan nan nan nan nan nan nan nan nan nan nan nan 18 nan nan nan nan 15 12 12 15 15 15 14 15 14 12 11 12 13 nan 8 nan 11 11 8 9 12 12 13 12 16 nan 14 19 19 21 21 20 21 23 22 22 22 23 22 23 23 24 24 24 24
nan nan nan nan nan nan nan nan nan nan nan nan nan nan nan nan nan nan nan nan nan nan nan nan nan nan nan nan nan nan nan nan nan nan nan nan nan nan nan 23 19 20 18 13 15 16 17 16 15 15 nan 14 nan nan 12 12 9 10 12 nan 9 10 11 13 14 12 12 13 13 18 19 18 17 18 18 21 22 22 21 21 22 23 24 23 24 23 25
nan nan nan nan nan nan nan nan nan nan nan nan nan nan nan nan nan nan nan nan nan 19 17 17 nan nan nan nan nan nan nan nan nan nan nan nan nan nan 27 23 20 nan 21 19 21 nan 16 15 nan nan nan nan nan 14 13 10 11 11 12 10 9 12 nan 14 13 13 13 14 12 14 18 16 16 18 18 18 19 20 20 20 23 24 26 25 24 24 24
nan nan nan nan nan nan nan nan nan nan nan nan nan nan nan nan nan nan nan nan nan nan 17 15 nan nan nan nan nan nan nan nan nan nan nan nan nan nan nan nan 21 23 nan nan nan nan 16 nan nan 16 nan 14 nan 14 nan 12 11 13 nan 10 11 nan 13 13 19 16 12 12 12 14 14 14 14 16 17 18 18 19 19 18 21 22 24 25 25 24 25
nan nan nan nan nan nan nan nan nan nan nan nan nan nan nan nan nan nan nan nan nan 20 19 19 nan nan nan nan 25 nan nan nan nan nan nan nan nan nan nan nan nan nan 20 nan 20 nan nan nan nan 17 nan 14 nan 15 nan 14 nan nan 15 10 10 14 13 14 16 15 12 13 17 19 20 18 16 17 16 16 19 19 19 19 18 19 21 23 24 23 23
nan nan nan nan nan nan nan nan nan nan nan nan nan nan nan nan nan nan nan nan nan 17 nan nan nan nan nan 27 nan nan nan nan nan nan nan nan nan nan nan 23 nan nan nan nan nan 18 17 17 20 18 14 12 17 17 16 nan 14 15 12 9 12 15 17 19 19 20 17 18 18 19 18 18 16 18 19 20 19 20 21 20 20 20 21 22 24 23 23
nan nan nan nan nan nan nan nan nan nan nan nan nan nan nan nan nan nan nan nan nan nan nan nan nan nan nan nan nan nan nan nan nan nan nan nan nan nan nan 24 22 23 25 20 19 18 17 19 20 17 14 15 17 17 nan nan 16 16 14 13 17 16 18 19 18 19 17 18 19 18 19 22 20 21 22 nan 21 22 21 22 22 nan nan nan 25 24 24
nan nan nan nan nan nan nan nan nan nan nan nan nan nan nan nan nan nan nan nan nan 20 nan nan nan nan nan nan nan nan nan nan nan nan nan nan nan nan nan nan 25 nan 22 22 23 20 20 19 19 15 15 19 19 16 nan nan 16 16 15 15 15 16 18 19 21 22 22 20 20 21 21 21 22 25 24 22 22 24 23 23 23 nan nan nan 25 25 26
nan nan nan nan nan nan nan nan nan nan nan nan nan nan nan 20 nan nan nan nan nan 20 nan nan nan nan nan nan nan nan nan nan nan nan nan nan nan nan 24 nan 26 nan 25 22 20 21 18 19 18 15 16 nan 17 nan 15 nan nan 16 16 15 15 18 19 18 19 21 21 22 23 23 nan 20 22 23 22 23 nan 23 26 25 26 23 nan 23 27 nan 28
nan nan nan nan nan nan nan nan nan nan nan nan nan nan nan nan nan nan nan nan nan 18 20 nan nan nan nan nan nan nan nan nan nan nan 18 nan 21 nan 22 nan 26 25 23 23 22 22 21 20 19 17 16 17 17 15 15 14 15 15 17 17 16 17 16 17 18 19 20 nan nan 21 20 23 23 29 26 24 23 23 nan nan 26 24 24 23 28 27 28
nan nan nan nan nan nan nan nan nan nan nan nan nan nan nan nan nan nan nan nan nan 17 18 nan nan nan nan nan nan 20 nan nan 20 nan nan nan 23 nan 23 nan 25 24 24 nan 23 22 20 20 18 18 17 16 16 16 14 14 16 16 16 16 16 15 15 16 16 17 18 20 20 23 25 25 26 25 27 26 26 nan nan nan nan nan nan nan nan 29 26
nan nan nan nan nan nan nan nan nan nan nan nan nan nan nan nan nan nan nan nan 17 nan nan nan nan nan nan nan nan 17 nan nan 18 nan nan 21 23 22 25 25 26 nan 23 nan 22 20 20 18 19 18 15 18 17 15 14 14 14 15 12 12 14 15 15 15 15 17 19 20 22 23 24 25 25 26 24 nan nan nan nan nan nan nan nan nan nan nan nan
nan nan nan nan nan nan nan nan nan nan nan nan nan nan nan nan nan nan nan nan 16 18 17 nan nan nan nan nan nan 18 24 nan 19 nan 22 22 22 nan 25 25 24 23 23 nan 20 21 18 19 19 14 18 nan 12 14 12 14 15 14 12 10 14 14 13 15 17 19 20 22 23 22 24 25 nan 26 26 nan nan nan nan nan nan nan nan nan nan nan nan
nan nan nan nan nan nan nan nan nan nan nan nan nan nan nan nan 17 nan nan 14 15 16 17 20 19 nan nan nan 20 18 21 nan nan nan 22 nan 24 nan 26 24 20 21 21 20 21 19 18 18 17 15 15 14 13 11 14 16 15 14 13 12 14 14 15 17 19 21 22 23 25 23 23 22 23 26 27 27 nan nan nan nan nan nan nan nan 29 nan nan
nan nan nan nan nan nan nan nan nan nan nan nan nan nan nan 13 13 nan 14 13 15 15 15 nan nan nan 20 nan 19 21 nan nan nan 23 25 25 24 25 28 25 21 20 18 18 18 21 20 18 17 15 14 14 14 14 15 15 16 17 17 16 15 16 18 19 21 23 23 23 23 24 25 nan 25 27 nan nan nan nan nan nan nan nan nan nan nan nan nan
nan nan nan nan nan nan nan 17 nan nan nan nan nan nan nan nan nan nan nan nan nan 13 nan nan nan nan nan nan 20 22 nan 22 22 24 23 23 23 24 25 25 26 21 19 18 17 nan 17 17 17 16 13 15 13 12 17 19 19 18 19 19 18 19 20 20 22 23 24 24 24 27 28 nan nan nan nan nan nan nan nan nan nan nan nan nan nan nan nan
nan nan nan nan nan nan 15 nan nan 14 nan nan nan nan nan nan nan nan nan nan nan nan nan nan nan nan nan nan nan 21 22 22 21 22 24 26 23 21 21 23 20 21 20 16 18 nan 17 16 16 15 12 13 11 16 19 20 21 19 20 20 22 22 23 23 23 24 23 24 nan 27 27 28 nan nan nan nan nan nan nan nan nan nan nan nan nan nan nan
nan nan nan nan nan nan 12 nan nan 13 nan nan nan nan nan nan nan nan nan nan nan nan nan nan nan nan nan nan nan nan 22 23 23 22 24 22 21 24 24 22 22 21 20 nan 19 nan 18 17 15 12 11 14 16 19 21 21 21 21 21 22 25 26 25 24 25 25 nan 27 nan nan 29 29 nan nan nan nan nan nan nan nan nan nan nan nan nan nan nan
nan nan nan nan nan nan 12 nan nan nan nan nan nan nan nan nan nan nan nan nan nan nan nan nan nan nan nan nan nan nan 21 21 22 23 24 23 21 22 24 24 20 17 nan 17 19 17 18 15 14 nan 12 16 20 20 21 22 21 22 23 25 26 27 27 26 26 26 27 29 30 30 30 31 30 29 28 nan nan nan nan nan nan nan nan nan nan nan nan
nan nan nan nan nan nan 14 nan nan nan nan nan nan nan nan nan nan nan nan nan nan nan nan nan nan nan nan nan nan nan 23 20 21 23 22 21 nan 22 22 21 19 17 16 21 19 17 14 nan nan 12 17 18 21 21 21 22 22 22 23 24 26 26 27 27 28 29 29 30 30 31 31 32 31 30 nan nan nan nan nan nan nan nan nan nan nan nan nan
nan nan nan nan nan nan nan nan nan nan nan nan nan nan nan nan nan nan nan nan nan nan nan nan nan nan nan nan nan 26 23 21 20 22 21 21 20 20 20 18 15 19 22 19 18 nan nan nan nan 14 15 18 20 22 23 24 23 23 23 24 26 26 27 28 31 31 30 31 31 32 nan nan nan nan nan nan nan nan nan nan nan nan nan nan nan nan nan
nan nan nan nan nan nan nan nan nan nan nan nan nan nan nan nan nan nan nan nan nan nan nan nan nan nan nan nan nan 24 22 20 20 19 nan 19 18 18 17 nan 18 19 17 nan nan 15 nan nan 16 17 16 19 21 22 23 23 24 25 25 25 26 26 28 30 31 32 32 31 nan nan nan nan nan nan nan nan nan nan nan nan nan nan nan nan nan nan nan
nan nan nan nan nan nan nan nan nan nan nan nan nan nan nan nan nan nan nan nan nan nan nan nan 11 nan nan nan nan 22 22 23 20 18 20 20 19 nan 15 17 19 nan nan nan nan nan nan 15 18 15 16 20 22 23 24 24 24 26 28 28 27 28 30 32 33 33 33 32 nan nan nan nan nan nan nan nan nan nan nan nan nan nan nan nan nan nan nan
nan nan nan nan nan nan nan nan nan nan nan nan nan nan nan nan nan nan 12 12 17 18 19 16 15 16 18 nan nan 22 21 23 21 21 21 20 19 21 20 19 nan nan nan nan 9 10 12 18 19 17 18 21 24 25 26 25 26 27 27 27 28 29 31 34 34 nan nan nan nan nan nan nan nan nan nan nan nan nan nan nan nan nan nan nan nan nan nan
nan nan nan nan nan nan nan nan nan nan nan nan nan nan nan nan nan nan nan 14 14 15 19 19 20 19 19 20 21 nan 20 20 22 22 nan 21 21 19 nan nan 15 15 13 10 10 13 17 20 20 20 20 23 26 27 26 27 27 29 28 30 30 31 33 36 nan nan nan nan nan nan nan nan nan nan nan nan nan nan nan nan nan nan nan nan nan nan nan
nan nan nan nan nan nan nan nan nan nan nan nan nan nan nan nan nan nan 15 16 19 21 19 20 18 18 18 17 nan 20 18 19 nan 20 20 21 20 nan 18 nan 14 12 13 13 13 18 21 19 20 24 26 26 26 26 26 27 28 29 30 31 32 34 36 nan nan nan nan nan nan nan nan nan nan nan nan nan nan nan nan nan nan nan nan nan nan nan nan
nan nan nan nan nan nan nan nan nan nan nan nan nan nan nan nan nan nan 16 17 18 17 18 20 21 21 20 19 nan 19 nan 20 20 22 20 18 18 19 18 14 15 15 18 21 20 21 22 20 22 23 25 26 26 27 28 28 28 29 30 33 34 nan nan nan nan nan nan nan nan nan nan nan nan nan nan nan nan nan nan nan nan nan nan nan nan nan nan
nan nan nan nan nan nan nan nan nan nan nan nan nan 14 12 12 16 21 18 17 17 19 19 19 20 nan nan nan nan nan 19 21 21 18 19 17 20 17 15 13 nan 22 21 18 22 23 22 21 22 24 25 26 27 28 27 29 30 31 33 36 nan nan nan nan nan nan nan nan nan nan nan nan nan nan nan nan nan nan nan nan nan nan nan nan nan nan nan
nan nan nan nan nan nan 15 15 nan nan nan nan nan nan nan 17 19 17 14 17 16 17 18 19 19 nan nan nan 18 21 22 21 20 19 16 16 18 15 15 17 23 18 21 nan 19 22 22 20 22 24 26 28 28 28 29 31 32 33 35 nan nan nan nan nan nan nan nan nan nan nan nan nan nan nan nan nan nan nan nan nan nan nan nan nan nan nan nan
Wind_Direction
nan nan nan nan nan nan nan nan nan nan nan nan nan nan nan nan nan nan nan nan nan nan nan nan nan nan nan nan nan nan nan nan nan nan nan nan nan nan nan nan nan nan nan nan nan nan nan nan nan nan nan nan nan nan nan nan nan nan nan nan nan nan nan nan nan nan nan nan nan nan nan nan nan nan nan nan nan nan nan nan nan nan nan nan nan 248 240
nan nan nan nan nan nan nan nan nan nan nan nan nan nan nan nan nan nan nan nan nan nan nan nan nan nan nan nan nan nan nan nan nan nan nan nan nan nan nan nan nan nan nan nan nan nan nan nan nan nan nan nan nan nan nan nan nan nan nan nan nan nan nan nan nan nan nan nan nan nan nan nan nan nan nan nan nan nan nan nan nan nan 222 230 230 243 240
nan nan nan nan nan nan nan nan nan nan nan nan nan nan nan nan nan nan nan nan nan nan nan nan nan nan nan nan nan nan nan nan nan nan nan nan nan nan nan nan nan nan nan nan nan nan nan nan nan nan nan nan nan nan nan nan nan nan nan nan nan nan nan nan nan nan nan nan nan nan nan nan nan nan nan nan 197 197 189 nan nan 238 220 223 219 229 233
nan nan nan nan nan nan nan nan nan nan nan nan nan nan nan nan nan nan nan nan nan nan nan nan nan nan nan nan nan nan nan nan nan nan nan nan nan nan nan nan nan nan nan nan nan nan nan nan nan nan nan nan nan nan nan nan nan 242 225 231 nan nan nan nan nan nan nan nan nan nan nan nan nan nan nan nan nan nan nan nan 227 238 230 223 223 243 235
nan nan nan nan nan nan nan nan nan nan nan nan nan nan nan nan nan nan nan nan nan nan nan nan nan nan nan nan nan nan nan nan nan nan nan nan nan nan nan nan nan nan nan nan nan nan nan nan nan nan nan nan nan nan nan nan nan 212 231 245 nan nan nan nan nan nan nan 239 nan nan nan nan nan nan nan nan nan nan nan nan nan 222 228 220 223 240 241
nan nan nan nan nan nan nan nan nan nan nan nan nan nan nan nan nan nan nan nan nan nan nan nan nan nan nan nan nan nan nan nan nan nan nan nan nan nan nan nan nan nan nan nan nan nan nan nan nan nan nan nan nan nan nan nan nan nan nan nan nan nan nan nan nan nan nan nan nan nan nan nan nan nan nan nan nan nan nan nan 214 220 221 216 212 223 237
nan nan nan nan nan nan nan nan nan nan nan nan nan nan nan nan nan nan nan nan nan nan nan nan nan nan nan nan nan nan nan nan nan nan nan nan nan nan nan nan nan nan nan nan nan nan nan 277 nan nan nan nan nan nan nan nan nan nan nan nan nan nan nan nan nan nan nan nan nan nan nan nan nan nan nan nan nan nan 202 207 210 222 222 226 224 221 233
nan nan nan nan nan nan nan nan nan nan nan nan nan nan nan nan nan nan nan nan nan nan nan nan nan nan nan nan nan nan nan nan nan nan nan nan nan nan nan nan nan nan nan nan nan 282 nan nan nan nan nan nan nan nan nan nan nan nan nan nan nan nan nan nan nan nan nan nan nan nan nan nan nan nan nan nan nan 211 208 204 203 212 220 223 227 224 226
nan nan nan nan nan nan nan nan nan nan nan nan nan nan nan nan nan nan nan 246 nan nan nan nan nan nan nan nan nan nan nan nan nan nan nan nan nan nan nan nan nan nan nan nan nan nan nan nan nan nan nan nan nan nan nan nan nan nan nan nan nan nan nan nan nan nan nan nan nan nan nan nan nan nan nan nan nan 212 212 207 204 211 217 223 227 225 222
nan nan nan nan nan nan nan nan nan nan nan nan nan nan nan nan nan nan nan nan 255 nan nan nan nan nan nan nan nan nan nan nan nan nan nan nan nan nan nan nan nan nan nan nan nan nan nan nan nan nan nan nan nan nan nan nan nan nan nan nan nan nan nan nan nan nan nan nan nan nan nan nan nan nan nan nan 216 221 222 218 215 214 216 220 223 228 229
nan nan nan nan nan nan nan nan nan nan nan nan nan nan nan nan nan nan 258 246 239 nan nan nan nan nan nan nan nan nan nan nan nan nan nan nan nan nan nan nan nan nan nan nan nan nan nan nan nan nan nan nan nan nan nan nan nan nan nan nan nan nan nan nan nan nan nan nan nan nan nan nan 231 233 nan 234 nan nan 224 218 220 220 219 221 224 228 230
nan nan nan nan nan nan nan nan nan nan nan nan nan nan nan nan nan nan nan 251 233 225 nan nan nan nan nan nan nan nan nan nan nan nan nan nan nan nan nan nan nan nan nan nan nan nan nan nan nan nan nan nan nan nan nan nan nan nan nan nan nan nan nan nan nan nan nan nan nan nan nan nan 224 223 nan nan 238 240 231 225 222 222 220 222 225 228 233
nan nan nan nan nan nan nan nan nan nan nan nan nan nan nan nan nan nan nan 254 241 231 229 nan nan nan nan nan nan nan nan nan nan nan nan nan nan nan nan nan nan nan nan nan nan nan nan nan nan nan nan nan nan nan nan nan nan nan nan nan nan nan nan nan nan nan nan nan nan nan nan 210 224 220 nan nan nan nan 242 nan nan 215 220 222 225 228 232
nan nan nan nan nan nan nan nan nan nan nan nan nan nan nan nan nan nan nan nan 237 237 224 217 223 nan nan nan nan nan nan nan nan nan nan nan nan nan nan nan nan nan nan nan nan nan nan nan nan nan nan nan nan nan nan nan nan nan nan nan nan nan nan nan nan nan nan nan nan 232 229 nan 217 223 223 nan nan nan nan nan nan nan nan 221 226 231 236
nan nan nan nan nan nan nan nan nan nan nan nan nan nan nan nan nan nan nan nan 237 232 230 221 219 213 nan nan nan nan nan nan nan nan nan nan nan nan nan nan nan nan nan nan nan nan nan nan nan nan nan nan nan nan nan nan nan nan nan nan nan nan nan 265 nan nan nan nan nan nan nan 236 224 225 nan 218 nan nan 241 248 nan nan 221 229 231 232 236
nan nan nan nan nan nan nan nan nan nan nan nan nan nan nan nan nan 257 nan nan nan nan nan nan 216 nan nan nan nan nan nan nan nan nan nan nan nan nan nan nan nan nan nan nan nan nan nan nan nan nan nan 278 nan nan nan nan nan nan nan nan nan nan nan nan nan nan nan 229 nan nan nan 242 248 230 212 nan nan nan nan nan 238 nan 226 231 233 235 236
nan nan nan nan nan nan nan nan nan nan nan nan nan nan nan nan nan nan nan nan nan nan 212 201 207 203 nan nan nan nan nan nan nan nan nan nan nan nan nan nan nan nan nan nan nan nan nan nan nan nan 265 270 274 nan nan nan nan 253 248 nan nan nan 253 nan nan nan nan 243 nan 235 232 242 240 239 237 nan nan nan nan nan 246 nan 233 236 237 239 241
nan nan nan nan nan nan nan nan nan nan nan nan nan nan nan nan nan nan nan nan nan nan 232 nan nan nan nan nan nan nan nan nan nan nan nan nan nan nan nan nan nan nan nan nan nan nan nan nan nan nan 269 266 263 nan nan nan 244 255 nan nan nan nan 238 246 nan nan nan nan 247 240 244 240 234 231 nan 233 238 nan nan nan nan 240 239 242 244 245 247
nan nan nan nan nan nan nan nan nan nan nan nan nan nan nan nan nan nan nan nan nan nan nan nan nan nan nan nan nan nan nan nan nan nan nan nan nan nan nan nan nan nan nan nan nan nan nan nan 250 254 262 259 nan nan nan nan 260 261 247 240 239 239 247 242 246 nan nan 253 254 253 nan nan nan 242 238 235 255 252 nan nan nan 255 252 250 248 251 251
nan nan nan nan nan nan nan nan nan nan nan nan nan nan nan nan nan nan nan nan nan nan nan nan nan nan nan nan nan nan nan nan nan nan nan nan 222 nan nan nan nan nan nan nan nan nan nan nan nan 255 nan nan 250 247 nan nan nan nan nan nan nan nan nan nan nan nan nan 260 262 264 261 246 231 244 249 237 260 266 nan 261 252 256 258 255 250 252 257
nan nan nan nan nan nan nan nan nan nan nan nan nan nan nan nan nan nan nan nan nan nan nan nan nan nan nan nan nan nan nan nan nan nan nan nan nan nan nan nan 229 nan 234 233 nan nan nan nan nan nan nan nan 236 239 nan 252 254 nan 265 nan 271 262 262 nan nan nan 265 260 265 272 274 264 248 256 270 271 271 273 262 260 260 259 260 258 257 252 257
nan nan nan nan nan nan nan nan nan nan nan nan nan nan nan nan nan nan nan nan nan nan nan nan nan nan nan nan nan nan nan nan nan nan nan nan 239 nan 238 238 236 nan 238 236 nan nan 242 244 246 241 241 248 248 251 232 nan 260 nan 271 276 nan 271 278 271 267 249 259 264 269 272 276 268 258 259 264 267 265 262 262 262 262 262 262 262 261 259 259
nan nan nan nan nan nan nan nan nan nan nan nan nan nan nan nan nan nan nan nan nan nan nan nan nan nan nan 210 nan nan nan nan nan nan nan 259 244 230 nan nan nan nan 235 238 240 237 237 240 243 253 246 240 251 251 240 260 262 267 269 269 285 286 280 272 264 261 261 257 267 278 274 275 270 262 259 261 261 260 259 259 260 259 262 262 264 265 265
nan nan nan nan nan nan nan nan nan nan nan nan nan nan nan nan nan nan nan nan nan nan nan nan nan nan nan nan nan nan nan nan nan nan nan nan nan 236 nan nan nan nan 240 234 235 234 226 229 233 242 239 249 250 256 260 nan 270 nan 274 262 256 259 259 266 269 269 266 nan 267 270 268 265 264 264 265 264 263 262 265 265 264 265 262 261 262 266 268
nan nan nan nan nan nan nan nan nan nan nan nan nan nan nan nan nan nan nan nan nan nan nan nan nan nan nan nan nan nan nan nan nan nan nan nan nan nan nan 237 232 242 242 230 231 226 229 229 229 236 nan 242 nan nan 264 263 255 260 269 nan 270 260 265 265 269 275 281 288 269 272 272 274 277 277 277 273 268 264 263 270 271 273 272 270 268 269 270
nan nan nan nan nan nan nan nan nan nan nan nan nan nan nan nan nan nan nan nan nan 275 258 243 nan nan nan nan nan nan nan nan nan nan nan nan nan nan 240 231 225 nan 230 227 231 nan 229 234 nan nan nan nan nan 257 259 271 280 273 288 314 294 276 nan 276 288 283 282 280 276 278 269 266 272 273 272 272 273 272 265 264 267 267 273 272 268 267 273
nan nan nan nan nan nan nan nan nan nan nan nan nan nan nan nan nan nan nan nan nan nan 271 249 nan nan nan nan nan nan nan nan nan nan nan nan nan nan nan nan 225 231 nan nan nan nan 227 nan nan 237 nan 255 nan 257 nan 260 269 280 nan 273 279 nan 265 278 278 283 296 296 291 282 284 285 281 276 271 275 275 277 276 270 271 269 271 276 275 271 268
nan nan nan nan nan nan nan nan nan nan nan nan nan nan nan nan nan nan nan nan nan 249 237 222 nan nan nan nan 203 nan nan nan nan nan nan nan nan nan nan nan nan nan 232 nan 227 nan nan nan nan 240 nan 249 nan 249 nan 275 nan nan 263 262 256 270 275 275 278 285 294 286 286 282 286 286 291 289 288 282 283 280 278 274 272 275 275 275 281 280 276
nan nan nan nan nan nan nan nan nan nan nan nan nan nan nan nan nan nan nan nan nan 249 nan nan nan nan nan 213 nan nan nan nan nan nan nan nan nan nan nan 228 nan nan nan nan nan 230 230 230 239 238 244 249 250 245 251 nan 267 273 283 278 262 265 269 277 283 279 281 289 287 289 286 292 291 290 289 281 278 281 281 279 272 268 269 273 271 272 277
nan nan nan nan nan nan nan nan nan nan nan nan nan nan nan nan nan nan nan nan nan nan nan nan nan nan nan nan nan nan nan nan nan nan nan nan nan nan nan 227 219 217 221 222 232 229 229 232 232 240 243 244 246 252 nan nan 267 274 279 277 270 267 266 268 277 285 290 287 289 290 283 285 290 290 282 nan 275 277 276 272 270 nan nan nan 272 269 266
nan nan nan nan nan nan nan nan nan nan nan nan nan nan nan nan nan nan nan nan nan 243 nan nan nan nan nan nan nan nan nan nan nan nan nan nan nan nan nan nan 217 nan 215 222 224 225 226 230 238 238 243 241 248 252 nan nan 272 278 286 291 288 282 278 279 280 284 289 292 286 278 281 291 290 284 284 284 283 284 283 280 280 nan nan nan 280 277 274
nan nan nan nan nan nan nan nan nan nan nan nan nan nan nan 253 nan nan nan nan nan 239 nan nan nan nan nan nan nan nan nan nan nan nan nan nan nan nan 218 nan 211 nan 220 220 223 229 232 236 242 244 244 nan 244 nan 254 nan nan 282 290 287 282 280 281 281 283 286 287 289 288 288 nan 287 286 289 285 284 nan 281 287 294 294 289 nan 283 281 nan 278
nan nan nan nan nan nan nan nan nan nan nan nan nan nan nan nan nan nan nan nan nan 236 229 nan nan nan nan nan nan nan nan nan nan nan 226 nan 223 nan 213 nan 215 215 219 218 222 223 225 228 244 243 238 241 248 254 258 266 273 286 291 288 285 286 287 287 283 283 282 nan nan 290 290 293 292 290 291 286 284 284 nan nan 291 298 296 295 290 287 288
nan nan nan nan nan nan nan nan nan nan nan nan nan nan nan nan nan nan nan nan nan 230 225 nan nan nan nan nan nan 216 nan nan 227 nan nan nan 224 nan 212 nan 211 212 215 nan 222 221 226 228 238 244 241 241 249 252 261 267 276 278 286 291 291 292 291 291 292 296 294 294 292 293 295 290 285 283 284 285 285 nan nan nan nan nan nan nan nan 296 293
nan nan nan nan nan nan nan nan nan nan nan nan nan nan nan nan nan nan nan nan 241 nan nan nan nan nan nan nan nan 214 nan nan 224 nan nan 221 226 215 212 212 206 nan 213 nan 217 223 226 237 247 250 248 253 251 258 262 278 286 288 288 292 295 290 291 296 305 303 300 296 297 299 297 297 296 294 293 nan nan nan nan nan nan nan nan nan nan nan nan
nan nan nan nan nan nan nan nan nan nan nan nan nan nan nan nan nan nan nan nan 222 214 211 nan nan nan nan nan nan 213 217 nan 228 nan 219 216 217 nan 208 214 213 209 217 nan 220 229 228 235 242 247 255 nan 260 268 285 282 286 294 299 290 294 298 303 308 306 303 303 304 304 303 305 305 nan 301 294 nan nan nan nan nan nan nan nan nan nan nan nan
nan nan nan nan nan nan nan nan nan nan nan nan nan nan nan nan 257 nan nan 229 230 216 209 206 203 nan nan nan 216 203 217 nan nan nan 219 nan 208 nan 212 212 214 213 211 221 221 221 224 227 245 250 258 258 257 280 289 292 285 285 295 293 298 298 299 299 306 307 308 309 311 314 313 310 306 299 295 294 nan nan nan nan nan nan nan nan 293 nan nan
nan nan nan nan nan nan nan nan nan nan nan nan nan nan nan 248 251 nan 240 226 230 229 217 nan nan nan 211 nan 209 216 nan nan nan 213 214 210 215 207 206 208 218 216 218 222 225 227 234 234 245 250 247 252 257 269 274 273 281 284 283 288 295 297 300 304 307 310 312 316 322 323 321 nan 311 303 nan nan nan nan nan nan nan nan nan nan nan nan nan
nan nan nan nan nan nan nan 271 nan nan nan nan nan nan nan nan nan nan nan nan nan 225 nan nan nan nan nan nan 205 209 nan 217 212 212 211 200 209 205 211 216 211 213 219 222 224 nan 232 242 248 251 247 256 263 272 277 274 274 278 281 286 293 299 303 306 309 314 317 320 323 327 322 nan nan nan nan nan nan nan nan nan nan nan nan nan nan nan nan
nan nan nan nan nan nan 270 nan nan 262 nan nan nan nan nan nan nan nan nan nan nan nan nan nan nan nan nan nan nan 206 217 220 218 214 214 204 205 222 206 218 220 222 221 224 229 nan 237 244 249 250 251 265 267 280 286 281 280 283 284 288 293 298 303 305 308 309 310 311 nan 310 310 308 nan nan nan nan nan nan nan nan nan nan nan nan nan nan nan
nan nan nan nan nan nan 254 nan nan 255 nan nan nan nan nan nan nan nan nan nan nan nan nan nan nan nan nan nan nan nan 211 214 214 215 217 218 203 213 218 219 219 219 216 nan 231 nan 240 240 247 258 260 271 272 284 285 282 284 284 287 290 294 298 300 302 305 305 nan 304 nan nan 306 304 nan nan nan nan nan nan nan nan nan nan nan nan nan nan nan
nan nan nan nan nan nan 260 nan nan nan nan nan nan nan nan nan nan nan nan nan nan nan nan nan nan nan nan nan nan nan 210 213 213 213 217 214 208 216 220 223 224 224 nan 228 238 234 241 245 251 nan 261 274 280 283 282 283 285 288 289 292 295 298 302 304 306 309 304 302 304 306 307 307 302 296 291 nan nan nan nan nan nan nan nan nan nan nan nan
nan nan nan nan nan nan 263 nan nan nan nan nan nan nan nan nan nan nan nan nan nan nan nan nan nan nan nan nan nan nan 210 212 212 212 215 223 nan 215 224 226 228 226 229 237 235 235 244 nan nan 249 260 274 282 283 282 286 288 289 292 295 300 304 306 307 302 299 299 301 303 305 307 306 305 301 nan nan nan nan nan nan nan nan nan nan nan nan nan
nan nan nan nan nan nan nan nan nan nan nan nan nan nan nan nan nan nan nan nan nan nan nan nan nan nan nan nan nan 210 212 212 211 214 215 218 222 224 226 226 231 227 235 235 237 nan nan nan nan 252 270 272 277 284 289 292 294 293 295 299 301 301 300 297 296 297 296 296 299 302 nan nan nan nan nan nan nan nan nan nan nan nan nan nan nan nan nan
nan nan nan nan nan nan nan nan nan nan nan nan nan nan nan nan nan nan nan nan nan nan nan nan nan nan nan nan nan 209 211 217 218 212 nan 220 222 225 228 nan 232 231 231 nan nan 240 nan nan 253 266 277 282 288 291 294 298 300 301 301 301 303 304 302 301 299 298 298 299 nan nan nan nan nan nan nan nan nan nan nan nan nan nan nan nan nan nan nan
nan nan nan nan nan nan nan nan nan nan nan nan nan nan nan nan nan nan nan nan nan nan nan nan 196 nan nan nan nan 214 213 219 223 219 219 219 220 nan 230 226 229 nan nan nan nan nan nan 251 269 278 282 285 286 289 292 294 296 296 300 306 308 307 305 302 300 299 301 300 nan nan nan nan nan nan nan nan nan nan nan nan nan nan nan nan nan nan nan
nan nan nan nan nan nan nan nan nan nan nan nan nan nan nan nan nan nan 211 203 208 190 192 199 202 204 210 nan nan 216 214 220 222 226 226 225 226 221 225 232 nan nan nan nan 245 242 244 257 273 276 281 279 283 286 291 293 295 297 299 300 303 303 303 302 302 nan nan nan nan nan nan nan nan nan nan nan nan nan nan nan nan nan nan nan nan nan nan
nan nan nan nan nan nan nan nan nan nan nan nan nan nan nan nan nan nan nan 208 213 206 208 201 209 204 209 204 207 nan 224 223 227 222 nan 228 229 230 nan nan 235 241 247 242 243 250 248 260 273 276 277 280 284 287 289 290 293 295 295 297 298 301 302 302 nan nan nan nan nan nan nan nan nan nan nan nan nan nan nan nan nan nan nan nan nan nan nan
nan nan nan nan nan nan nan nan nan nan nan nan nan nan nan nan nan nan 216 215 216 217 212 217 211 212 215 205 nan 219 221 226 nan 228 226 230 238 nan 242 nan 248 245 250 248 238 243 256 265 271 279 280 282 281 283 284 288 292 296 298 299 299 300 299 nan nan nan nan nan nan nan nan nan nan nan nan nan nan nan nan nan nan nan nan nan nan nan nan
nan nan nan nan nan nan nan nan nan nan nan nan nan nan nan nan nan nan 220 229 228 229 223 221 216 218 205 204 nan 225 nan 212 221 230 231 235 238 240 242 238 244 243 240 237 239 254 266 268 273 275 278 279 280 283 287 289 292 294 297 299 298 nan nan nan nan nan nan nan nan nan nan nan nan nan nan nan nan nan nan nan nan nan nan nan nan nan nan
nan nan nan nan nan nan nan nan nan nan nan nan nan 200 189 196 213 211 200 217 230 225 220 220 216 nan nan nan nan nan 224 230 227 230 231 231 237 238 244 242 nan 239 239 234 251 259 262 269 272 275 277 276 278 282 286 289 292 293 294 293 nan nan nan nan nan nan nan nan nan nan nan nan nan nan nan nan nan nan nan nan nan nan nan nan nan nan nan
nan nan nan nan nan nan 181 184 nan nan nan nan nan nan nan 209 218 218 219 237 226 228 230 229 226 nan nan nan 228 230 225 225 230 235 238 232 239 238 244 243 254 256 251 nan 247 251 263 267 273 275 275 277 279 281 283 287 288 289 291 nan nan nan nan nan nan nan nan nan nan nan nan nan nan nan nan nan nan nan nan nan nan nan nan nan nan nan nan